Thor Agena Rocket - Orbit

View from above orbital plane
View from above orbital plane
View from above satellite
View from above satellite

Ground track
Ground track

The orbit data is extracted from the following two-line orbital elements,

1 00733U 64002A   13141.49050012  .00000205  00000-0  94035-4 0  9493
2 00733 098.9806 242.1192 0034465 183.4555 234.2517 14.31635953569395
Epoch (UTC): 21 May 2013 11:46:19
Eccentricity: 0.0034465
inclination: 98.9806°
perigee height: 761 km
apogee height: 811 km
right ascension of ascending node: 242.1192°
argument of perigee: 183.4555°
revolutions per day: 14.31635953
mean anomaly at epoch: 234.2517°
orbit number at epoch: 56939

The dashed part of the orbit path shows where the satellite is in the earth's shadow,  

Developed and maintained by Chris Peat, Heavens-Above GmbH. Please read the updated FAQ before sending e-mail. Imprint. DLR